User: anonymous   Login
Location: Oshawa
(43.9000°N, 78.8670°W)
Time: 16:43:26
(UTC-04:00)
Language:

CARTOSAT-1 - Orbit

View from above orbital plane
View from above orbital plane
View from above satellite
View from above satellite

Ground track
Ground track

The orbit data is extracted from the following two-line orbital elements,

1 28649U 05017A   15185.44167405  .00000365  00000-0  50949-4 0  9998
2 28649 097.9354 256.7666 0001638 175.6619 184.4611 14.83418535550163
Epoch (UTC): 04 July 2015 10:36:00
Eccentricity: 0.0001638
inclination: 97.9354°
perigee height: 617 km
apogee height: 620 km
right ascension of ascending node: 256.7666°
argument of perigee: 175.6619°
revolutions per day: 14.83418535
mean anomaly at epoch: 184.4611°
orbit number at epoch: 55016

The dashed part of the orbit path shows where the satellite is in the earth's shadow,  

DLR